Tracking 19575 objects as of 19-Feb-2019
HD Live streaming from Space Station
objects crossing your sky now

THORAD DELTA 1 DEB

Track THORAD DELTA 1 DEB now!
10-day predictions


NORAD ID: 8394
Int'l Code: 1974-089BW
Perigee: 1,460.5 km
Apogee: 1,736.7 km
Inclination: 102.4 °
Period: 118.0 minutes
Semi major axis: 7969 km
RCS: 0.0669 m2 (small)
Launch date: November 15, 1974
Source: United States (US)
Launch site: AIR FORCE WESTERN TEST RANGE (AFWTR)

Note: This is SATELLITE DEBRIS
aabbcc
Your satellite tracking list
Your tracking list is empty




NASA's NSSDC Master Catalog

Two Line Element Set (TLE):
1  8394U 74089BW  19049.72978488 -.00000027  00000-0  15788-3 0  9990
2  8394 102.4192 113.9593 0173293   8.5027 109.5160 12.20239396613338
Source of the keplerian elements: AFSPC